Погода в Солнечном

Россия / Амурская область     54°07′54″N   123°40′15″E
темп.,
°C
ветер,
м/с
пор.,
м/с
влажн.,
%
обл.,
%
осадки,
мм/ч
давл.,
гПа
погр.,
м
13 апреля, вт
вт1300:00−14ссз11965 0.0 102218
03:00−15ссз11969 0.0 102021
06:00−16ссз119621 0.0 102018
09:00−6с475662 0.0 10161424
12:00−4с4648100 0.1 10142038
15:00−3с4647100 0.1 10131991
18:00−4ссз3656100 0.1 10121463
21:00−8ссв1195100 0.2 101312
14 апреля, ср
ср1400:00−12ссз119743 0.0 101315
03:00−14с119839 0.0 101215
06:00−16с119853 0.0 101213
09:00−6ссз01685 0.0 1009321
12:00−2зюз1349100 0.0 10081554
15:00+1з1440100 0.1 10061923
18:000с364851 0.0 1007703
21:00−8ссв1191100 0.0 101021
15 апреля, чт
чт1500:00−10с119639 0.0 101112
03:00−11с119725 0.0 101114
06:00−12ссв119727 0.0 101115
09:00−3ссз01665 0.0 1010293
12:00+2вюв114558 0.0 10091333
15:00+3ююв1239100 0.0 10081800
18:00+2ююз1254100 0.0 100972
21:00−5св1187100 0.0 101213
16 апреля, пт
пт1600:00−6св1192100 0.0 101325
03:00−6ссв1189100 0.0 101333
06:00−7ссв1289100 0.0 101435
09:00−1ссв2460100 0.0 1014273
12:00+3ссв3544100 0.0 10131375
15:00+3ссв4544100 0.0 10121588
18:00+2ссв3551100 0.0 1013720
21:00−4с21867 0.0 101519
17 апреля, сб
сб1700:00−6ссв11925 0.0 101515
03:00−7св119623 0.0 101510
06:00−8св019740 0.0 101412
09:00−1ю13637 0.0 1012328
12:00+5ююз354319 0.0 10101077
15:00+8юз46385 0.0 10081414
18:00+7ю245199 0.0 1007113
21:000в11715 0.0 100910